CZ-6A DEB, 56674

Orbit data source: Space-Track

CZ-6A DEB, 56674 is space debris in SSO originally from a launch on Fri, 11 Nov 2022 UTC launched from the Taiyaun Space Center, China (TSC). Debris objects in space refer to the collection of defunct objects orbiting the Earth. Examples of debris include non-operational satellites, rocket bodies, and fragments generated from explosions, collisions, or faulty payload assembly.

Loading next visibility...
Identifier
56674, 2022-151AHA
Orbit
SSO
Country
Flag of CNCN / PRC
Related business
Manufacturer
SAST
Mission
Spacecraft
Bus & Motor
Unknown
Mass
Unknown
Launch date (UTC)
2022-11-11 (3 years ago)
Launch vehicle
Unknown
Launch site
Taiyaun Space Center, China (TSC)
Object type
Payload
Rocket body
Debris
Shape & HBR
Unknown shape, 0.1 m
Radar Cross Section
Small (<0.1 m²)

Expand to show TLE details & history
Last TLE update: 2 days ago

TLE from 2 days ago
0 CZ-6A DEB
1 56674U 22151AHA 25349.02918278  .00004548  00000-0  93713-3 0  9996
2 56674  98.5374  18.5488 0129049 159.4708 201.1742 14.55851321144796
Epoch: 2025-12-15T00:42Z
TLE epoch observation values (Epoch: 2025-12-15T00:42:01.392Z)
Latitude
-0.00008°
Longitude
-75.89061°
Altitude
794.996 km
Speed
7.411 km/s
True Right ascension
01h 14m 11s
True Declination
0° 00' 00"
Sunlit
Object was in daylight at epoch
Visualization orbit readout
Latitude
Unknown
Longitude
Unknown
Altitude
Unknown
Speed
Unknown
Apparent Right ascension
Unknown
Apparent Declination
Unknown
Sunlit
N/A
Visualization observer readout
Local Sidereal Time
13:38:54
Azimuth
Unknown
Elevation
Unknown
Doppler factor
Unknown
Orbital elements
Apogee altitude
795.094 km
Perigee altitude
612.313 km
Semi-major axis
7,081.84 km
Eccentricity
0.0129
Inclination
98.5374°
RAAN
18.5488°
Arg. of periapsis
159.4708°
True anomaly
200.64798°
Mean anomaly
201.1742°
Eccentric anomaly
200.91031°
Mean motion
3.64187 °/min
Orbital period
98.85 mins
BSTAR
0.00093713
Loading maneuver chart data...
Computing Atmospheric mass density...
Loading historical data...
Loading historical data...
Loading historical data...
Loading historical data...
Loading historical data...
Loading historical data...
Loading historical data...

Documentation

Showing up to 5 results
|